Vertical_Velocity
1 0 -1 1 2 -0 3 -0 0 1 0 -0 -1 -2 -1 -1 -1 2 -1 1 -1 -3 -0 1 -1 -0 -3
4 2 2 -4 1 -2 0 -1 -1 -0 -3 -3 -1 -2 -1 -1 -0 -0 0 1 -3 1 0 3 1 2 -2
-2 2 5 1 -4 -2 -1 -1 0 2 -2 1 -2 -3 -2 1 1 1 2 -0 0 -2 1 -1 0 1 -0
-2 -1 3 2 2 -2 -0 2 -1 -1 0 -2 -3 -3 -1 3 -2 -1 0 -2 1 1 -2 0 -1 2 -0
-0 -2 3 -2 -1 1 2 4 1 2 1 -0 -3 -5 -2 -1 -0 1 3 3 -1 -4 -1 -2 -0 -3 -4
-0 2 2 -6 -6 3 0 1 4 2 3 -0 0 -9 -5 2 -3 1 0 -2 -0 -2 -3 -3 0 1 -2
-1 3 1 -4 0 0 -0 2 4 3 2 7 -4 -5 -5 2 -1 0 -2 -0 -3 -3 -5 -1 2 0 -2
0 -2 4 3 -0 -0 -2 0 3 2 -3 9 -3 2 -1 -3 -5 -3 0 -1 -4 -2 -4 -5 2 1 2
3 0 1 4 3 -3 0 2 1 1 -2 2 4 2 -1 -9 -12 -2 -1 1 -3 -4 -4 -3 2 4 4
1 4 -0 1 -0 3 3 -1 -1 1 -4 1 -1 -4 4 3 -14 -1 -1 1 -3 -3 -2 -3 -4 1 4
0 2 1 -1 -1 2 2 -4 -2 -0 0 -3 -0 -3 -4 5 -4 -2 2 -4 -4 -1 -6 -8 3 -16 -6
4 2 -1 -2 4 2 -3 -3 -2 2 -2 -4 0 -6 -3 6 -1 -1 -9 4 11 -0 1 -1 -6 -3 -18
6 2 -4 -1 7 -1 -3 -2 2 0 -4 -3 -1 -2 -3 4 4 4 1 -18 -5 10 -0 -7 3 1 26
6 -4 1 6 -1 -1 4 0 -1 -2 -0 1 -5 -4 -1 -0 2 -2 5 9 0 -2 6 -4 -4 -10 -7
-1 -1 4 3 -2 1 2 -0 -3 -3 -1 -3 -5 -4 -0 -0 -2 0 2 -6 -4 5 10 9 -14 -5 -1
-1 6 1 1 2 -1 -0 -2 -3 -1 -0 -3 -5 0 -3 0 1 1 -3 3 -4 -1 -13 -3 6 -2 -8
2 3 1 1 4 -1 -3 -1 -2 -2 -1 -0 -2 -2 -5 -1 1 5 -2 -3 4 -1 -9 -8 -9 -9 -6
Height
5805 5806 5808 5812 5815 5815 5816 5815 5813 5811 5809 5806 5803 5801 5798 5794 5790 5786 5780 5774 5768 5763 5756 5749 5741 5734 5726
5794 5797 5799 5802 5806 5806 5806 5806 5804 5803 5800 5797 5794 5791 5788 5783 5779 5774 5769 5764 5760 5753 5746 5740 5732 5724 5716
5786 5788 5790 5791 5793 5796 5797 5796 5796 5794 5792 5787 5785 5782 5779 5774 5768 5763 5760 5754 5750 5744 5737 5729 5721 5715 5707
5778 5779 5781 5783 5785 5786 5787 5788 5787 5785 5782 5780 5777 5773 5769 5764 5758 5754 5750 5746 5740 5734 5727 5719 5712 5704 5697
5769 5771 5772 5774 5776 5778 5779 5779 5778 5776 5773 5770 5765 5762 5758 5753 5750 5746 5741 5736 5731 5724 5717 5710 5703 5695 5687
5759 5762 5763 5765 5768 5769 5770 5769 5769 5769 5764 5760 5756 5751 5747 5746 5741 5737 5732 5727 5721 5714 5708 5701 5694 5686 5676
5750 5752 5755 5759 5761 5761 5760 5759 5759 5756 5754 5751 5745 5741 5740 5736 5733 5728 5723 5718 5712 5706 5700 5693 5685 5676 5666
5740 5742 5745 5748 5751 5751 5750 5749 5748 5747 5745 5742 5736 5733 5729 5727 5723 5719 5715 5710 5704 5698 5691 5683 5675 5666 5654
5732 5736 5737 5737 5739 5740 5740 5741 5739 5738 5735 5732 5729 5726 5721 5717 5714 5712 5707 5701 5695 5689 5681 5674 5666 5657 5645
5722 5723 5725 5727 5730 5730 5730 5730 5731 5728 5725 5724 5722 5719 5717 5709 5706 5704 5699 5693 5687 5679 5672 5665 5656 5647 5637
5709 5711 5715 5719 5719 5719 5720 5721 5720 5719 5718 5717 5714 5711 5708 5705 5700 5696 5691 5684 5677 5670 5661 5652 5643 5634 5628
5697 5702 5706 5708 5708 5710 5711 5712 5711 5710 5710 5708 5706 5704 5702 5700 5695 5688 5682 5678 5670 5660 5651 5642 5632 5621 5608
5687 5691 5693 5696 5700 5701 5701 5703 5703 5704 5703 5700 5698 5697 5696 5692 5686 5681 5674 5668 5661 5652 5641 5634 5627 5616 5608
5676 5679 5684 5688 5689 5691 5693 5695 5696 5695 5693 5693 5692 5690 5687 5683 5679 5674 5668 5661 5652 5645 5636 5622 5613 5601 5591
5665 5669 5672 5676 5680 5683 5684 5686 5687 5686 5686 5686 5685 5682 5679 5675 5672 5666 5659 5651 5646 5639 5630 5616 5599 5590 5578
5654 5659 5663 5668 5672 5674 5676 5677 5679 5678 5678 5678 5676 5674 5671 5668 5664 5657 5651 5644 5636 5627 5618 5608 5594 5580 5567
5643 5648 5654 5659 5662 5665 5667 5669 5671 5671 5671 5669 5667 5665 5663 5659 5656 5650 5643 5637 5628 5618 5607 5595 5585 5572 5557